Location: ????????
(55.8620°N, 38.6958°E)
Time: 12:13:00
(UTC+00:00)

Daily predictions for brighter satellites

Satellite Brightness Start Highest point End
(mag) Time Altitude Azimuth Time Altitude Azimuth Time Altitude Azimuth
Cosmos 44 3.5 17:39:21 10° NW 17:44:08 67° NE 17:49:11 10° ESE
FALCON 9 DEB 4.1 17:44:05 10° SW 17:47:12 30° SSE 17:50:18 10° E
CZ-2C R/B 3.8 17:43:42 10° NNE 17:48:19 62° ESE 17:52:48 10° S
USA 267 4.2 17:45:31 10° ENE 17:50:37 24° SE 17:55:41 10° S
COSMOS 2428 4.4 17:46:06 10° NNW 17:50:50 25° NNE 17:55:34 10° E
NOSS 3-2 (A) 4.0 17:46:22 10° S 17:51:38 36° ESE 17:57:36 10° ENE
Cosmos 614 Rocket 4.2 17:47:52 10° SSW 17:53:04 79° WNW 17:58:20 10° NNE
OBJECT-B 2.1 17:50:13 10° S 17:53:22 41° W 17:56:31 10° NNW
Cosmos 1697 Rocket 4.3 17:49:55 10° NW 17:54:48 31° WSW 17:59:41 10° SSW
Cosmos 1833 Rocket 2.7 17:51:37 10° SSW 17:57:15 88° SE 18:02:56 10° NE
Cosmos 1470 Rocket 4.0 17:53:51 10° SSE 17:58:01 43° E 18:02:10 10° NNE
Cosmos 2237 Rocket 4.3 17:56:33 10° NNW 18:00:42 20° NNE 18:04:47 10° ENE
NOSS 3-2 (C) 4.2 17:56:12 10° S 18:01:06 28° ESE 18:06:34 10° ENE
Meteor 1-4 Rocket 3.5 17:58:24 10° NNW 18:01:45 46° W 18:05:04 10° S
Sich 1 3.6 18:00:11 10° SSW 18:04:36 64° WNW 18:09:02 10° N
Cosmos 540 Rocket 4.0 18:00:06 10° NNW 18:05:09 50° NE 18:10:07 10° SE
SPOT 5 3.4 18:01:34 10° SE 18:05:36 39° ENE 18:09:45 10° N
Cosmos 1184 Rocket 2.8 18:03:31 10° S 18:06:47 61° E 18:10:04 10° NNE
Cosmos 1862 Rocket 3.9 18:03:14 10° NNW 18:07:43 72° W 18:12:07 10° S
Cosmos 1934 Rocket 4.1 18:02:01 10° S 18:08:24 80° E 18:14:47 10° NNE
Cosmos 2333 Rocket 3.5 18:04:28 10° NNW 18:09:38 32° NNE 18:14:47 10° E
SPOT 1/Viking Rocket 3.7 18:05:01 10° SSE 18:10:12 70° ENE 18:15:26 10° NNW
Cosmos 1437 Rocket 3.0 18:07:15 10° N 18:11:01 52° ENE 18:14:34 11° SSE
Cosmos 405 Rocket 3.2 18:08:14 10° SSE 18:11:42 38° E 18:15:14 10° NNE
SL-27 R/B 4.0 18:13:03 12° SE 18:14:44 17° E 18:16:55 10° ENE
USA 32 4.1 18:10:00 10° S 18:15:10 68° E 18:20:23 10° NNE
Landsat 7 3.8 18:10:34 10° SSE 18:15:21 87° ENE 18:20:09 10° NNW
Resurs 01 Rocket 2.5 18:12:33 10° S 18:16:50 48° W 18:21:10 10° NNW
Cosmos 1515 3.9 18:14:54 10° N 18:18:42 57° ENE 18:22:10 12° SSE
Meteor 1-19 Rocket 4.2 18:14:55 10° NNW 18:20:22 77° ENE 18:25:51 10° SSE
ERBS 2.5 18:17:04 10° W 18:20:23 70° N 18:23:41 10° E
Cosmos 676 Rocket 4.0 18:15:13 10° SSW 18:20:32 74° ESE 18:25:54 10° NNE
ERS-1 Rocket 3.2 18:16:12 11° SSE 18:21:02 61° ENE 18:26:01 10° NNW
GP-B 3.1 18:17:04 10° N 18:21:32 88° E 18:26:00 10° S
OPS 6432 4.3 18:17:58 10° SW 18:21:39 61° SE 18:24:41 10° ENE
Cosmos 841 Rocket 3.7 18:17:31 10° NNW 18:22:45 66° ENE 18:27:24 13° SE
Okean 1 3.3 18:22:16 10° NNW 18:26:22 89° WSW 18:30:25 10° S
USA 234 3.4 18:23:26 11° ESE 18:29:43 69° SSW 18:36:15 10° WNW
Cosmos 468 Rocket 4.4 18:24:50 10° NNW 18:30:07 64° WSW 18:35:20 10° SSE
ATLAS 3B R/B 3.8 18:27:31 11° SSE 18:31:53 20° ESE 18:36:30 10° ENE
Cosmos 1867 3.5 18:28:00 10° SW 18:33:27 77° SE 18:38:57 10° NE
CARTOSAT-1 3.6 18:29:48 13° SSE 18:33:39 72° ENE 18:38:00 10° NNW
Okean 3 4.2 18:32:48 10° N 18:36:53 40° ENE 18:39:55 16° SE
Meteor 2-4 Rocket 3.8 18:31:48 10° NNW 18:37:30 69° ENE 18:42:13 14° SSE
Cosmos 1933 Rocket 3.5 18:34:19 10° S 18:38:44 73° E 18:43:12 10° NNE
SL-4 R/B 2.2 18:38:19 10° WSW 18:42:01 42° S 18:44:49 14° ESE
IGS 5A 4.1 18:39:46 10° S 18:43:48 52° W 18:47:53 10° NNW
Cosmos 1814 Rocket 4.0 18:41:03 10° NNW 18:46:17 79° ENE 18:50:23 17° SSE
CZ-2C R/B 4.2 18:42:30 10° N 18:47:13 36° WNW 18:51:56 10° SW
SL-16 R/B 2.6 18:41:56 10° NW 18:47:32 61° WSW 18:52:22 14° SSE
Meteor 1-14 Rocket 4.4 18:41:45 10° S 18:47:34 64° E 18:53:30 10° NNE
Iridium 4 Rocket 3.8 18:45:41 18° SE 18:48:16 34° E 18:52:02 10° NNE
Cosmos 2219 Rocket 3.1 18:43:05 10° NNW 18:48:30 42° NE 18:53:23 12° ESE
Cosmos 1869 Rocket 4.1 18:46:44 16° SSE 18:49:59 43° E 18:54:15 10° NNE
Cosmos 1954 Rocket 4.3 18:44:57 10° SW 18:50:17 75° WNW 18:55:38 10° NNE
USA 238 DEB 3.6 18:43:54 10° SW 18:50:32 69° SE 18:57:30 10° NE
USA 238 3.6 18:44:02 10° SW 18:50:38 69° SE 18:57:36 10° NE
Spot 2 Rocket 4.2 18:45:56 10° S 18:50:54 53° W 18:55:55 10° NNW
BREEZE-M DEB (TANK) 3.4 18:51:21 10° WSW 18:54:27 42° S 19:03:03 10° ESE
Cosmos 1741 Rocket 4.1 18:49:42 10° S 18:54:51 59° ESE 19:00:04 10° NNE
Cosmos 2322 4.1 18:49:44 10° NNW 18:55:21 56° NE 18:59:44 16° ESE
Okean 1-7 3.2 18:51:10 10° NNW 18:55:30 71° W 18:59:08 14° S
Cosmos 1703 Rocket 3.9 18:51:57 10° NNW 18:56:16 63° W 19:00:06 13° S
Cosmos 1570 Rocket 4.2 18:52:50 10° NNW 18:58:10 75° WSW 19:02:16 17° SSE
GENESIS II 4.4 18:56:55 10° NW 19:00:57 70° NE 19:03:36 20° ESE
CENTAUR R/B 2.7 18:55:22 10° SSW 19:01:22 56° SE 19:08:29 10° NE
Cosmos 2082 Rocket 2.8 18:55:46 10° SW 19:01:24 61° NW 19:07:03 10° NNE
Cosmos 1536 4.2 19:00:46 19° ESE 19:02:10 23° E 19:05:20 10° NE
Lacrosse 5 3.3 18:59:10 10° W 19:03:18 25° SW 19:06:26 14° S
Terra 1.8 19:01:13 18° SSE 19:04:45 87° ENE 19:09:33 10° NNW
Cosmos 1605 Rocket 4.3 18:58:43 10° SSW 19:04:47 68° WNW 19:10:53 10° N
Cosmos 2100 Rocket 4.0 19:00:45 13° S 19:06:07 62° E 19:12:13 10° NNE
Cosmos 2322 Rocket 2.7 19:00:46 10° NW 19:06:19 55° WSW 19:10:41 17° S
Cosmos 2208 Rocket 4.1 19:01:34 10° NNW 19:06:52 75° WSW 19:10:35 19° SSE
Cosmos 1238 Rocket 3.5 19:06:14 10° SW 19:09:02 39° WNW 19:11:58 10° N
Cosmos 2333 4.4 19:04:21 10° NNW 19:10:10 68° NE 19:14:16 20° SE
Cosmos 2173 Rocket 4.0 19:08:24 15° S 19:13:36 66° E 19:19:39 10° NNE
Cosmos 2237 4.3 19:08:21 10° NW 19:14:05 72° WSW 19:17:59 21° SSE
USA 276 4.1 19:12:38 10° WSW 19:14:43 16° SSW 19:14:46 16° SSW
SL-16 R/B 4.3 19:10:22 10° NNW 19:14:47 22° NNE 19:19:11 10° ENE
Geosat 4.4 19:12:52 18° ESE 19:16:30 56° NE 19:21:25 10° NNW
Cosmos 2360 Rocket 2.3 19:11:25 10° NW 19:17:07 75° WSW 19:20:54 22° SSE
Cosmos 1733 Rocket 4.0 19:20:26 24° SE 19:22:10 33° E 19:26:09 10° NNE
ALOS 2 4.2 19:20:18 15° ESE 19:22:53 24° ENE 19:26:27 10° N
FALCON 9 DEB 3.3 19:20:26 10° WSW 19:23:51 53° S 19:25:31 26° ESE
Cosmos 2084 Rocket 3.5 19:19:53 10° SSW 19:24:00 54° SE 19:28:15 10° ENE
Cosmos 1725 Rocket 4.4 19:20:03 21° SSE 19:24:05 48° E 19:30:09 10° NNE
Cosmos 44 4.4 19:20:47 10° WNW 19:25:10 34° WSW 19:28:10 18° S
Cosmos 1500 3.1 19:25:02 21° S 19:27:25 89° E 19:31:12 10° NNE
Cosmos 1459 Rocket 4.0 19:23:40 14° S 19:29:08 81° E 19:35:33 10° NNE
Cosmos 2016 Rocket 4.1 19:28:46 20° S 19:33:15 64° E 19:39:35 10° NNE
SAR-Lupe-2 3.7 19:29:45 10° NNE 19:33:22 75° WNW 19:35:52 19° SSW
USA 267 3.3 19:28:10 10° ENE 19:34:38 58° SSE 19:41:04 10° SW
Cosmos 2346 Rocket 4.4 19:28:44 10° NNW 19:34:50 88° W 19:38:55 22° S
MTI 4.3 19:31:59 10° NNE 19:34:55 37° E 19:35:16 36° ESE
COSMOS 2428 2.9 19:30:25 10° NNW 19:36:10 67° NE 19:39:52 23° SE
Cosmos 1356 3.6 19:37:15 38° SSE 19:38:10 51° E 19:41:31 10° NNE
Cosmos 1666 2.8 19:37:05 34° SSE 19:38:28 57° E 19:42:11 10° NNE
Cosmos 44 Rocket 3.3 19:35:38 10° NW 19:40:36 83° NE 19:43:33 25° SE
Cosmos 1242 Rocket 2.5 19:37:38 10° NNW 19:41:17 78° ENE 19:42:36 37° SSE
Cosmos 2221 Rocket 3.8 19:37:06 10° NNW 19:41:34 70° W 19:44:04 26° S
NOSS 3-2 (A) 3.7 19:35:59 10° WSW 19:42:01 77° NNW 19:49:04 10° NE
SPOT 5 3.9 19:40:39 15° SSW 19:43:46 34° W 19:47:52 10° NNW
Cosmos 2237 Rocket 3.1 19:40:53 10° NNW 19:46:17 42° NE 19:50:40 15° ESE
SL-27 R/B 3.1 19:46:33 12° SW 19:49:29 52° WNW 19:52:45 10° NNE
CRYOSAT 2 4.5 19:45:47 10° N 19:50:39 62° E 19:52:57 30° SSE
NOSS 3-2 (C) 3.5 19:45:13 10° SW 19:51:13 90° NNW 19:58:13 10° NE
Cosmos 836 Rocket 4.4 19:46:54 10° NNW 19:52:10 86° ENE 19:54:50 30° SSE
Cosmos 1378 3.3 19:48:47 10° N 19:52:30 60° ENE 19:53:40 39° SE
Cosmos 1743 3.8 19:53:16 28° ESE 19:54:00 30° E 19:57:27 10° NNE
Lacrosse 4 Rocket 2.1 19:53:39 33° SE 19:54:09 34° ESE 19:57:58 10° NE
Cosmos 1378 Rocket 3.7 19:49:58 10° N 19:54:27 67° ENE 19:56:17 34° SSE
Cosmos 2333 Rocket 2.2 19:48:46 10° NW 19:54:35 86° WSW 19:57:45 28° SSE
ERBS 2.1 19:53:25 10° WNW 19:56:44 73° SSW 19:57:24 51° SE
Cosmos 2061 Rocket 3.9 19:52:30 21° S 19:56:54 86° E 20:03:10 10° NNE
Cosmos 1271 Rocket 2.8 19:55:21 10° N 19:59:08 63° ENE 20:00:19 40° SE
Cosmos 1066 Rocket 4.3 19:57:07 10° NNW 20:02:51 76° WSW 20:05:53 28° S
Meteor 1-11 Rocket 3.7 20:00:05 22° S 20:03:52 88° ESE 20:09:44 10° NNE
Cosmos 2233 Rocket 4.2 20:01:24 27° SSE 20:04:51 61° E 20:11:05 10° NNE
Cosmos 1802 Rocket 4.2 20:00:36 16° SSW 20:05:48 75° WNW 20:12:09 10° N
Cosmos 1544 4.2 20:13:03 28° E 20:13:22 28° E 20:16:34 10° NNE
USA 234 4.2 20:10:46 23° S 20:13:30 31° SW 20:19:12 10° WNW
Cosmos 1975 Rocket 3.9 20:10:02 10° N 20:14:20 42° ENE 20:16:03 29° ESE
Thor Agena Rocket 3.8 20:10:42 10° NNE 20:15:41 52° E 20:17:38 34° SSE
Cosmos 2344 4.3 20:07:54 10° NW 20:16:32 80° NNE 20:28:27 10° ESE
SL-4 R/B 2.7 20:17:43 10° W 20:20:23 32° SW 20:20:23 32° SW
ATLAS 3B R/B 2.5 20:14:57 10° SW 20:21:28 69° SE 20:28:08 10° NE
COSMOS 2487 2.2 20:21:58 58° S 20:22:34 81° ESE 20:26:02 10° NNE
Spot 4 4.0 20:24:31 34° S 20:26:31 67° WSW 20:31:22 10° NNW
Iridium 4 Rocket 4.4 20:25:27 15° SW 20:28:17 32° WNW 20:32:03 10° NNW
Cosmos 2227 Rocket 4.1 20:27:48 13° ESE 20:28:53 13° E 20:31:30 10° ENE
SL-16 R/B 4.4 20:27:53 10° WNW 20:30:32 14° W 20:33:11 10° SW
Cosmos 2219 Rocket 2.5 20:27:08 10° NW 20:32:42 56° WSW 20:35:05 33° S
NOSS 0 Rocket 3.9 20:27:05 10° NW 20:33:22 86° WSW 20:36:37 31° SSE
Cosmos 1707 4.0 20:32:15 10° N 20:35:48 31° ENE 20:37:01 26° ESE
MOS 1-B Rocket 3.8 20:30:21 10° NNE 20:36:04 84° WNW 20:39:23 26° SSW
Cosmos 1025 Rocket 4.3 20:34:03 10° N 20:37:52 30° ENE 20:39:34 23° ESE
Cosmos 783 Rocket 4.4 20:32:52 10° NNW 20:38:09 85° WSW 20:40:19 37° SSE
Cosmos 1536 3.6 20:36:28 26° SW 20:38:21 46° WNW 20:42:13 10° N
Cosmos 1674 Rocket 4.4 20:35:21 10° NNW 20:39:26 41° W 20:41:02 29° SW
ATLAS 5 CENTAUR R/B 3.8 20:36:45 10° W 20:39:33 23° SW 20:39:34 23° SW
USA 238 DEB 4.4 20:35:07 10° W 20:41:47 57° NNW 20:48:49 10° ENE
USA 238 4.4 20:35:13 10° W 20:41:54 57° NNW 20:48:56 10° ENE
Terra 4.0 20:40:06 10° SW 20:43:10 17° W 20:46:21 10° NW
Cosmos 1833 4.2 20:42:36 19° SW 20:46:43 82° NW 20:52:27 10° NE
Cosmos 1842 3.2 20:43:25 10° NNW 20:47:24 90° ENE 20:48:12 55° SSE
DNEPR-1 R/B 4.2 20:41:05 10° NW 20:47:29 85° NE 20:50:24 28° SE
EO 1 Del DPAF 3.1 20:44:14 10° NNE 20:48:02 81° ESE 20:48:44 57° S
Cosmos 2322 Rocket 4.5 20:47:07 10° WNW 20:49:09 12° W 20:51:11 10° WSW
Cosmos 1503 Rocket 4.2 20:48:41 37° S 20:50:34 58° ESE 20:55:51 10° NNE
Meteor 2-11 Rocket 4.4 20:48:24 32° S 20:51:25 86° ESE 20:57:34 10° NNE
CENTAUR R/B 3.2 20:45:38 10° WSW 20:52:05 64° NNW 20:59:48 10° NE
Sich 1 Rocket 4.3 20:53:36 34° ESE 20:54:34 38° E 20:58:39 10° NNE
Okean 2 3.4 20:50:34 10° NNW 20:54:41 70° W 20:55:39 49° SSW
Cosmos 1486 Rocket 3.9 20:53:33 30° SSW 20:56:10 86° WNW 21:01:25 10° NNE
ALOS 2 2.8 20:57:42 42° SSW 20:58:55 60° WSW 21:03:18 10° NNW
Cosmos 1733 Rocket 4.2 20:57:31 21° SW 20:59:56 38° WNW 21:04:07 10° N
Cosmos 2360 Rocket 4.1 20:56:38 10° WNW 21:00:12 17° W 21:02:39 13° SW
SL-16 R/B 2.9 20:54:38 10° NNW 21:00:13 52° NE 21:04:29 17° ESE
Meteor 1-21 4.2 20:57:16 10° NNW 21:03:07 81° WSW 21:05:34 36° S
Cosmos 2084 Rocket 4.4 20:59:28 10° W 21:03:37 48° NNW 21:07:53 10° NE
Cosmos 1975 2.7 21:07:59 56° S 21:08:48 83° E 21:12:53 10° NNE
Cosmos 773 Rocket 4.0 21:07:55 10° NNW 21:13:02 68° WSW 21:14:44 41° S
SL-24 DEB 4.2 21:09:06 10° N 21:13:55 86° W 21:15:29 43° S
SL-16 R/B 4.1 21:08:55 10° ESE 21:14:14 30° NE 21:19:31 10° N
Cosmos 1536 Rocket 4.0 21:12:51 10° N 21:17:07 52° ENE 21:18:30 36° SE
USA 267 3.2 21:11:23 10° ENE 21:17:58 87° NNW 21:24:32 10° W
COSMOS 2428 3.8 21:15:07 10° NW 21:20:07 32° WSW 21:21:52 27° SW
Cosmos 968 Rocket 3.7 21:18:04 28° SW 21:20:47 67° WNW 21:25:57 10° NNE
Cosmos 2297 Rocket 3.1 21:20:13 29° SE 21:21:43 34° ESE 21:26:46 10° NE
Cosmos 1980 3.8 21:16:43 10° NW 21:22:19 60° WSW 21:24:20 38° S
Meteor 2-9 Rocket 4.2 21:21:24 37° S 21:23:47 87° ESE 21:29:37 10° NNE
Helios 1A 2.9 21:22:59 52° S 21:23:57 77° WSW 21:28:13 10° NNW
Cosmos 1538 Rocket 3.9 21:18:51 10° NNW 21:24:04 81° WSW 21:25:57 40° SSE
Cosmos 1782 Rocket 3.5 21:23:22 48° SSW 21:24:32 80° WNW 21:28:55 10° N
Cosmos 1607 3.9 21:19:01 10° NW 21:25:29 84° SW 21:29:33 25° SE
In-Cosmos 22 4.2 21:23:15 10° NNW 21:28:52 77° ENE 21:31:15 35° SSE
Cosmos 1743 4.0 21:28:20 26° WSW 21:29:44 33° WNW 21:33:20 10° N
Cosmos 2237 Rocket 2.4 21:25:03 10° NW 21:30:35 56° WSW 21:32:28 38° S
Cosmos 1908 Rocket 4.4 21:30:25 29° WSW 21:32:07 43° WNW 21:36:18 10° N
Lacrosse 4 Rocket 2.3 21:29:55 19° WSW 21:32:46 48° NW 21:36:49 10° NE
Cosmos 2219 3.7 21:31:18 35° SSE 21:33:00 45° ESE 21:38:19 10° NE
Cosmos 2026 Rocket 4.3 21:27:07 10° N 21:33:09 59° ENE 21:36:35 26° SE
Cosmos 2333 Rocket 3.8 21:33:57 10° NW 21:38:07 21° W 21:39:44 18° WSW
Timation 2 Rocket 3.9 21:41:09 35° SSW 21:43:45 68° ESE 21:49:42 10° NE
Cosmos 1544 4.4 21:47:21 27° W 21:48:20 32° WNW 21:51:41 10° N
Meteor 1-12 Rocket 4.4 21:45:54 35° S 21:48:30 72° E 21:54:32 10° NNE
Cosmos 2112 Rocket 4.4 21:43:29 10° NNW 21:48:41 60° ENE 21:52:04 21° SE
Cosmos 158 Rocket 4.2 21:45:16 10° NNW 21:50:40 70° ENE 21:53:51 25° SE
Cosmos 1437 3.4 21:48:45 10° NNW 21:51:12 42° WNW 21:51:12 42° WNW
Cosmos 1975 Rocket 4.3 21:48:08 10° NNW 21:52:05 31° W 21:53:12 27° WSW
Cosmos 1634 Rocket 4.4 21:50:33 29° SSE 21:53:35 53° E 21:59:35 10° NNE
Cosmos 1354 Rocket 4.4 21:53:25 27° SW 21:56:16 61° WNW 22:01:35 10° NNE
Cosmos 1674 2.7 21:53:48 10° N 21:57:33 68° ENE 21:58:19 51° SE
Cosmos 1464 Rocket 4.2 21:54:49 30° SW 21:57:59 63° WNW 22:04:08 10° N
Cosmos 1300 Rocket 3.4 21:57:17 50° S 21:58:24 88° E 22:02:44 10° NNE
Cosmos 1943 4.3 21:55:01 10° NNW 22:00:22 42° NE 22:05:42 10° ESE
Meteor 2-5 Rocket 4.0 21:57:08 10° N 22:02:45 64° ENE 22:05:56 26° SE
CZ-2D R/B 3.9 21:59:24 10° NE 22:03:45 23° E 22:06:57 15° SE
Cosmos 1680 Rocket 3.5 21:59:02 10° NNW 22:04:19 83° ENE 22:07:04 29° SSE
Nadezhda 4 Rocket 4.4 21:58:40 10° NNW 22:04:44 51° W 22:07:27 31° SSW
MOZ.5/SAFIR/RUBIN 5/SL-8 4.4 22:03:33 24° SE 22:06:15 53° ENE 22:10:51 10° N
Helios 1B rocket 2.7 22:03:40 10° NNE 22:07:43 55° ESE 22:08:43 43° SSE
Cosmos 1428 Rocket 4.5 22:01:58 10° NNW 22:08:17 89° ENE 22:11:37 30° S
Cosmos 1766 4.4 22:10:01 29° SE 22:11:03 34° E 22:14:34 10° NNE
Cosmos 1707 3.7 22:08:08 10° NNW 22:11:41 32° W 22:12:09 31° WSW
Cosmos 2227 Rocket 2.3 22:09:36 36° S 22:11:49 61° ESE 22:17:25 10° NE
ATLAS 3B R/B 3.3 22:05:59 10° W 22:12:28 54° NNW 22:19:07 10° NE
Meteor 2-13 Rocket 4.5 22:07:56 10° NNW 22:14:00 69° W 22:16:50 33° S
Okean 2 Rocket 3.3 22:12:54 41° SW 22:14:20 66° WNW 22:18:51 10° N
Cosmos 1777 Rocket 4.0 22:12:29 37° SSW 22:14:41 90° ESE 22:20:02 10° NNE
Cosmos 2219 Rocket 4.2 22:13:17 10° WNW 22:15:27 12° W 22:16:46 11° WSW
Cosmos 1025 Rocket 3.7 22:11:34 10° NNW 22:15:35 40° W 22:16:26 35° WSW
Okean 1 Rocket 3.5 22:14:30 36° SSE 22:15:53 53° E 22:20:11 10° NNE
Meteor 1-29 3.7 22:13:29 10° NNE 22:16:48 41° E 22:17:19 38° SE
SJ 16-02 2.3 22:18:08 31° SE 22:19:24 37° ESE 22:23:29 10° NE
Cosmos 1733 4.3 22:20:05 30° SE 22:21:11 36° E 22:24:45 10° NNE
CZ-4 R/B 3.9 22:17:15 10° NNE 22:22:18 88° WNW 22:24:20 37° SSW
Cosmos 1092 Rocket 4.2 22:18:16 10° NNW 22:24:22 56° W 22:27:10 31° SSW
NOSS 8 (A) 4.2 22:25:25 60° W 22:25:45 68° NW 22:28:51 10° NE
Cosmos 1626 2.4 22:23:30 10° N 22:27:13 61° ENE 22:28:26 38° SE
UNK 4.2 22:25:25 22° SE 22:28:20 58° ENE 22:32:57 10° N
Okean 1-7 Rocket 4.4 22:25:35 10° N 22:29:53 48° ENE 22:32:39 21° SE
Cosmos 2034 Rocket 4.5 22:26:37 27° SW 22:30:00 53° WNW 22:36:15 10° N
Landsat 4 4.0 22:27:07 10° N 22:30:52 59° WNW 22:31:50 43° SW
Cosmos 724 4.2 22:26:10 10° NW 22:32:10 79° SW 22:38:08 11° SE
Cosmos 1805 3.4 22:32:35 44° SSE 22:33:37 66° E 22:37:30 10° NNE
Cosmos 923 Rocket 4.3 22:31:47 10° NW 22:36:56 50° WSW 22:38:48 34° SSW
Cosmos 2082 3.9 22:34:49 32° S 22:37:17 57° ESE 22:42:48 10° NE
Spot 1 3.8 22:39:25 38° SSE 22:40:54 84° WSW 22:45:02 10° NNW
Resurs 1-4 Rocket 3.0 22:36:26 10° NNE 22:41:26 41° E 22:44:27 21° SSE
Cosmos 1455 Rocket 4.3 22:41:31 20° SE 22:43:53 35° E 22:47:56 10° NNE
CENTAUR R/B 3.9 22:37:13 10° WNW 22:43:58 48° N 22:51:52 10° ENE
SL-16 R/B 2.7 22:38:58 10° NW 22:44:19 43° WSW 22:46:18 31° SSW
Cosmos 2151 Rocket 4.2 22:45:26 31° WSW 22:47:03 46° WNW 22:51:19 10° N
SL-14 R/B 3.1 22:45:16 10° NNW 22:49:13 87° WSW 22:50:33 40° S
Cosmos 1892 Rocket 3.5 22:47:00 10° NNW 22:51:30 89° ENE 22:53:36 31° SSE
Cosmos 2263 Rocket 3.8 22:49:31 14° SSE 22:52:50 24° ESE 22:57:14 10° NE
Cosmos 2098 Rocket 3.9 22:49:35 10° N 22:54:45 75° ENE 22:59:48 17° SSE
SL-16 R/B 2.5 22:52:56 21° SSE 22:57:20 80° WSW 23:03:38 10° NNW
CZ-4C R/B 3.0 22:58:24 37° SSE 22:59:44 89° ENE 23:03:28 10° NNW
NOSS 3-1 (C) 4.0 22:57:24 26° S 23:00:10 44° SE 23:06:21 10° NE
Cosmos 1655 Rocket 3.9 22:54:19 10° NNW 23:00:38 83° W 23:04:51 22° S
USA 267 3.3 22:54:26 10° E 23:01:00 85° N 23:07:36 10° WNW
DELTA 2 DEB (DPAF) 4.2 23:02:23 33° S 23:04:13 61° WSW 23:08:39 10° NNW
Uosat 12 SS-18 rocket 4.3 23:02:10 24° WSW 23:04:53 69° NW 23:09:14 10° NE
Cosmos 2297 Rocket 2.5 23:02:01 23° SW 23:05:31 62° NW 23:11:10 10° NNE
Meteor 1-15 Rocket 4.4 23:05:38 27° SW 23:08:39 61° WNW 23:14:11 10° N
Lacrosse 4 Rocket 3.9 23:09:19 10° WNW 23:12:21 19° NNW 23:15:22 10° NNE
Cosmos 2237 Rocket 4.1 23:11:23 10° WNW 23:13:26 12° W 23:14:16 12° WSW
Meteor 1-24 Rocket 3.8 23:08:45 10° NNW 23:14:03 54° W 23:16:49 27° SSW
ADEOS II 3.4 23:10:25 10° NNE 23:15:13 34° E 23:19:38 12° SSE
Cosmos 1461 3.1 23:13:38 32° SSW 23:15:39 73° SE 23:20:18 10° NE
Cosmos 2219 3.8 23:13:12 18° WSW 23:17:10 49° NW 23:22:39 10° NNE
IRAS Rocket 4.4 23:16:04 24° S 23:19:24 57° WSW 23:24:57 10° NNW
Cosmos 2279 Rocket 4.1 23:20:54 24° SSW 23:24:43 66° WNW 23:30:57 10° N
Cosmos 1603 3.7 23:19:15 10° NW 23:24:57 64° WSW 23:30:31 10° SSE
SL-24 R/B 4.5 23:21:41 22° S 23:25:01 85° W 23:30:29 10° N
BREEZE-M TANK 4.3 23:25:51 18° SSE 23:25:51 18° SSE 23:28:43 10° SE
GEOS 3 Rocket 4.3 23:22:27 10° NE 23:27:39 46° SE 23:30:53 22° S
Cosmos 1937 Rocket 3.8 23:24:35 23° S 23:27:50 65° ESE 23:33:07 10° NNE
Cosmos 1726 3.3 23:27:44 16° SSE 23:30:13 36° E 23:33:36 10° NNE
Cosmos 1544 Rocket 3.8 23:28:26 21° S 23:31:17 66° E 23:35:43 10° NNE
Cosmos 990 Rocket 3.9 23:29:02 25° SSW 23:32:06 89° WNW 23:37:18 10° NNE
Cosmos 2180 Rocket 4.5 23:28:40 23° SSW 23:32:39 72° WNW 23:38:50 10° N
CZ-4B R/B 3.9 23:29:35 10° NNE 23:34:16 53° ESE 23:37:48 17° S
USA 229 DEB 3.8 23:32:46 22° SSW 23:37:10 63° SE 23:44:03 10° NE
USA 229 3.8 23:32:52 22° SSW 23:37:14 62° SE 23:44:06 10° NE
Cosmos 1758 3.4 23:36:38 23° S 23:39:01 76° E 23:43:02 10° NNE
Cosmos 1340 Rocket 2.8 23:37:29 25° S 23:39:42 81° ESE 23:43:40 10° NNE
COBE Rocket 3.7 23:36:41 18° S 23:40:05 71° WSW 23:44:46 10° NNW
Helios 1B rocket 4.0 23:39:25 10° N 23:42:43 24° WNW 23:45:01 15° WSW
Cosmos 1898 Rocket 3.5 23:39:48 23° SSW 23:43:07 81° WNW 23:48:22 10° NNE
CZ-2D R/B 2.2 23:38:54 10° NNE 23:44:25 78° WNW 23:48:16 20° SSW
Cosmos 1943 3.3 23:39:09 10° NW 23:44:39 55° WSW 23:50:06 10° SSE
ARIANE 5 R/B 4.0 23:40:20 10° NNE 23:45:05 34° E 23:49:49 10° SSE
Meteor 2-14 Rocket 4.4 23:39:49 10° NNW 23:45:56 89° W 23:52:01 10° S
Cosmos 1602 Rocket 3.5 23:42:27 10° NNW 23:46:51 89° NE 23:50:50 12° S
NOSS 2-3 (C) 4.4 23:44:18 21° SSW 23:46:58 46° SE 23:52:05 10° NE
Cosmos 1766 4.4 23:45:23 21° WSW 23:47:10 30° WNW 23:50:38 10° N
Cosmos 1703 4.0 23:43:35 10° N 23:47:30 53° ENE 23:51:23 10° SSE
SL-08 R/B 3.6 23:43:26 10° SSE 23:48:23 74° ENE 23:53:19 10° NNW
Cosmos 1900 4.4 23:43:14 10° NW 23:48:24 86° NE 23:53:35 10° SE
NOSS 3-1 (A) 3.8 23:44:33 20° SSW 23:48:25 55° SE 23:54:54 10° NE
Meteor 1-22 Rocket 4.5 23:50:36 21° SW 23:54:04 52° WNW 23:59:23 10° N
Cosmos 1953 2.7 23:52:42 15° S 23:55:54 62° E 23:59:56 10° NNE
